When you browse on this site, cookies collect data to enhance your experience and personalize the content and advertising you see.
Visit our Privacy Policy to learn more. By continuing to use the site, you agree to this use of cookies and data.
  • In Romania
  • List of Countries
  • For 7 days
  • Water Temperature
  • Weather Map
  • Weather Widgets
  • user-avatar
    Login

    Hourly Weather Starachowice

    Today, 12 November, Tuesday

    Time Temperature Precipitation Wind Pressure Humidity
    00:00 +3°C° 0 mm 4 mps 737 mmHg 87%
    01:00 +2°C° 0 mm 5 mps 737 mmHg 86%
    02:00 +2°C° 0 mm 5 mps 737 mmHg 85%
    03:00 +3°C° 0 mm 4 mps 736 mmHg 85%
    04:00 +3°C° 0 mm 4 mps 736 mmHg 84%
    05:00 +3°C° 0 mm 4 mps 736 mmHg 84%
    06:00 +4°C° 0 mm 4 mps 736 mmHg 84%
    07:00 +4°C° 0 mm 4 mps 736 mmHg 84%
    08:00 +5°C° 0 mm 4 mps 736 mmHg 79%
    09:00 +6°C° 0 mm 4 mps 736 mmHg 74%
    10:00 +7°C° 0 mm 4 mps 736 mmHg 70%
    11:00 +8°C° 0 mm 4 mps 736 mmHg 68%
    12:00 +10°C° 0 mm 4 mps 736 mmHg 65%
    13:00 +11°C° 0 mm 4 mps 735 mmHg 63%
    14:00 +10°C° 0.3 mm 4 mps 735 mmHg 71%
    15:00 +8°C° 0.3 mm 4 mps 734 mmHg 78%
    16:00 +9°C° 0.3 mm 3 mps 734 mmHg 85%
    17:00 +8°C° 0.6 mm 3 mps 734 mmHg 85%
    18:00 +8°C° 0.6 mm 3 mps 734 mmHg 84%
    19:00 +8°C° 0.6 mm 3 mps 734 mmHg 83%
    20:00 +8°C° 0.3 mm 3 mps 733 mmHg 83%
    21:00 +8°C° 0.3 mm 3 mps 733 mmHg 83%
    22:00 +8°C° 0.3 mm 3 mps 732 mmHg 82%
    23:00 +8°C° 0.1 mm 4 mps 732 mmHg 81%

    Tomorrow, 13 November, Wednesday

    Time Temperature Precipitation Wind Pressure Humidity
    00:00 +8°C° 0.1 mm 4 mps 732 mmHg 80%
    01:00 +10°C° 0.1 mm 4 mps 732 mmHg 79%
    02:00 +11°C° 0 mm 4 mps 731 mmHg 78%
    03:00 +10°C° 0 mm 5 mps 731 mmHg 78%
    04:00 +12°C° 0 mm 5 mps 730 mmHg 77%
    05:00 +12°C° 0.1 mm 5 mps 730 mmHg 78%
    06:00 +12°C° 0.1 mm 5 mps 730 mmHg 79%
    07:00 +12°C° 0.1 mm 4 mps 730 mmHg 80%
    08:00 +12°C° 0.1 mm 5 mps 730 mmHg 77%
    09:00 +13°C° 0.1 mm 5 mps 730 mmHg 75%
    10:00 +13°C° 0.1 mm 6 mps 730 mmHg 72%
    11:00 +13°C° 0.1 mm 5 mps 730 mmHg 74%
    12:00 +13°C° 0.1 mm 5 mps 730 mmHg 76%
    13:00 +13°C° 0.1 mm 4 mps 730 mmHg 78%
    14:00 +13°C° 0 mm 4 mps 729 mmHg 79%
    15:00 +12°C° 0 mm 3 mps 729 mmHg 81%
    16:00 +12°C° 0 mm 3 mps 729 mmHg 83%
    17:00 +11°C° 0 mm 3 mps 729 mmHg 83%
    18:00 +11°C° 0 mm 3 mps 729 mmHg 83%
    19:00 +11°C° 0 mm 3 mps 729 mmHg 83%
    20:00 +11°C° 0 mm 4 mps 729 mmHg 81%
    21:00 +10°C° 0 mm 5 mps 728 mmHg 79%
    22:00 +10°C° 0 mm 5 mps 728 mmHg 78%
    23:00 +11°C° 0 mm 6 mps 728 mmHg 75%

    Day after tomorrow, 14 November, Thursday

    Time Temperature Precipitation Wind Pressure Humidity
    00:00 +11°C° 0 mm 6 mps 729 mmHg 73%
    01:00 +12°C° 0 mm 7 mps 729 mmHg 71%
    02:00 +11°C° 0 mm 6 mps 730 mmHg 75%
    03:00 +11°C° 0 mm 6 mps 730 mmHg 78%
    04:00 +10°C° 0 mm 5 mps 731 mmHg 82%
    05:00 +10°C° 0 mm 4 mps 732 mmHg 83%
    06:00 +9°C° 0 mm 2 mps 732 mmHg 83%
    07:00 +9°C° 0 mm 1 mps 733 mmHg 84%
    08:00 +9°C° 0 mm 1 mps 734 mmHg 82%
    09:00 +9°C° 0 mm 1 mps 734 mmHg 80%
    10:00 +10°C° 0 mm 1 mps 734 mmHg 78%
    11:00 +9°C° 0 mm 2 mps 734 mmHg 77%
    12:00 +9°C° 0 mm 2 mps 734 mmHg 76%
    13:00 +10°C° 0 mm 2 mps 734 mmHg 74%
    14:00 +9°C° 0 mm 2 mps 734 mmHg 77%
    15:00 +9°C° 0 mm 2 mps 734 mmHg 80%
    16:00 +9°C° 0 mm 2 mps 734 mmHg 83%
    17:00 +9°C° 0 mm 2 mps 734 mmHg 86%
    18:00 +9°C° 0 mm 2 mps 734 mmHg 89%
    19:00 +8°C° 0 mm 2 mps 735 mmHg 91%
    20:00 +9°C° 0 mm 2 mps 734 mmHg 92%
    21:00 +9°C° 0 mm 2 mps 734 mmHg 92%
    22:00 +9°C° 0 mm 2 mps 734 mmHg 93%
    23:00 +10°C° 0 mm 2 mps 734 mmHg 92%

    15 November, Friday

    Time Temperature Precipitation Wind Pressure Humidity
    00:00 +10°C° 0 mm 3 mps 734 mmHg 91%
    01:00 +10°C° 0 mm 3 mps 734 mmHg 90%
    02:00 +10°C° 0 mm 3 mps 734 mmHg 91%
    03:00 +9°C° 0 mm 3 mps 734 mmHg 92%
    04:00 +9°C° 0 mm 3 mps 734 mmHg 92%
    05:00 +9°C° 0 mm 3 mps 734 mmHg 92%
    06:00 +8°C° 0 mm 3 mps 734 mmHg 92%
    07:00 +8°C° 0 mm 3 mps 734 mmHg 93%
    08:00 +9°C° 0 mm 3 mps 735 mmHg 88%
    09:00 +11°C° 0 mm 3 mps 735 mmHg 83%
    10:00 +12°C° 0 mm 4 mps 735 mmHg 79%
    11:00 +12°C° 0 mm 4 mps 735 mmHg 77%
    12:00 +13°C° 0 mm 4 mps 735 mmHg 75%
    13:00 +14°C° 0 mm 4 mps 735 mmHg 72%
    14:00 +13°C° 0 mm 4 mps 735 mmHg 77%
    15:00 +12°C° 0 mm 4 mps 735 mmHg 81%
    16:00 +12°C° 0 mm 3 mps 735 mmHg 85%
    17:00 +11°C° 0 mm 3 mps 735 mmHg 87%
    18:00 +11°C° 0 mm 4 mps 736 mmHg 88%
    19:00 +10°C° 0 mm 4 mps 736 mmHg 90%
    20:00 +10°C° 0 mm 4 mps 736 mmHg 89%
    21:00 +10°C° 0 mm 4 mps 736 mmHg 88%
    22:00 +10°C° 0 mm 4 mps 736 mmHg 88%
    23:00 +10°C° 0 mm 4 mps 736 mmHg 87%

    16 November, Saturday

    Time Temperature Precipitation Wind Pressure Humidity
    00:00 +10°C° 0 mm 4 mps 736 mmHg 87%
    01:00 +9°C° 0 mm 5 mps 736 mmHg 87%
    02:00 +9°C° 0 mm 5 mps 736 mmHg 86%
    03:00 +10°C° 0 mm 4 mps 737 mmHg 86%
    04:00 +10°C° 0 mm 4 mps 737 mmHg 86%
    05:00 +10°C° 0 mm 4 mps 737 mmHg 86%
    06:00 +10°C° 0 mm 4 mps 737 mmHg 85%
    07:00 +10°C° 0 mm 4 mps 737 mmHg 85%
    08:00 +10°C° 0 mm 5 mps 737 mmHg 79%
    09:00 +11°C° 0 mm 6 mps 737 mmHg 73%
    10:00 +12°C° 0 mm 7 mps 738 mmHg 68%
    11:00 +14°C° 0 mm 6 mps 738 mmHg 66%
    12:00 +14°C° 0 mm 6 mps 738 mmHg 64%
    13:00 +15°C° 0 mm 6 mps 738 mmHg 62%
    14:00 +14°C° 0 mm 5 mps 738 mmHg 65%
    15:00 +13°C° 0 mm 5 mps 738 mmHg 67%
    16:00 +13°C° 0 mm 5 mps 738 mmHg 70%
    17:00 +12°C° 0 mm 5 mps 738 mmHg 70%
    18:00 +12°C° 0 mm 5 mps 739 mmHg 71%
    19:00 +12°C° 0 mm 5 mps 739 mmHg 72%
    20:00 +11°C° 0 mm 4 mps 739 mmHg 73%
    21:00 +11°C° 0 mm 4 mps 739 mmHg 75%
    22:00 +10°C° 0 mm 3 mps 739 mmHg 77%
    23:00 +10°C° 0 mm 3 mps 739 mmHg 78%

    17 November, Sunday

    Time Temperature Precipitation Wind Pressure Humidity
    00:00 +10°C° 0 mm 3 mps 739 mmHg 79%
    01:00 +9°C° 0 mm 3 mps 739 mmHg 80%
    02:00 +9°C° 0 mm 3 mps 739 mmHg 83%
    03:00 +8°C° 0 mm 4 mps 738 mmHg 86%
    04:00 +7°C° 0 mm 4 mps 738 mmHg 89%
    05:00 +7°C° 0 mm 4 mps 738 mmHg 91%
    06:00 +7°C° 0 mm 4 mps 738 mmHg 93%
    07:00 +7°C° 0 mm 5 mps 738 mmHg 95%
    08:00 +8°C° 0 mm 5 mps 738 mmHg 90%
    09:00 +9°C° 0 mm 5 mps 738 mmHg 85%
    10:00 +10°C° 0 mm 5 mps 738 mmHg 80%
    11:00 +12°C° 0 mm 5 mps 738 mmHg 77%
    12:00 +12°C° 0 mm 5 mps 737 mmHg 73%
    13:00 +13°C° 0 mm 5 mps 737 mmHg 69%
    14:00 +12°C° 0 mm 5 mps 737 mmHg 73%
    15:00 +12°C° 0 mm 5 mps 737 mmHg 77%
    16:00 +10°C° 0 mm 5 mps 737 mmHg 81%
    17:00 +10°C° 0 mm 5 mps 737 mmHg 83%
    18:00 +9°C° 0 mm 5 mps 736 mmHg 85%
    19:00 +8°C° 0 mm 4 mps 736 mmHg 87%
    20:00 +8°C° 0 mm 4 mps 736 mmHg 88%
    21:00 +7°C° 0 mm 4 mps 736 mmHg 89%
    22:00 +7°C° 0 mm 4 mps 736 mmHg 90%
    23:00 +7°C° 0 mm 4 mps 736 mmHg 91%
    Show more